星链-36266(STARLINK-36266)

导读

STARLINK-36266(NORAD编号67984)是美国SpaceX公司星链(Starlink)卫星互联网星座中的一员,运行于近地低轨轨道,属于星链大规模组网部署的卫星之一。它和其他星链卫星一同,通过相控阵天线与多波束设计,为地面用户和信关站提供通信服务,助力实现全球高速低延迟互联网覆盖,尤其可服务地面基础设施难以覆盖的偏远区域。2026年SpaceX计划将数千颗星链卫星轨道高度从550公里降至480公里,该星也属于调整范围内,降轨可提升太空运行安全,减少太空碎片风险。目前该卫星随星链星座持续拓展,为全球网络接入提供支持。

基本信息
目录编号:
67984
目录名称:
STARLINK-36266
国际标识:
2026-038Z
轨道中心:
EARTH
卫星名称:
星链-36266
卫星全名:
星链-36266(STARLINK-36266)
卫星状态:
在轨 (已飞行191 天)
发射日期:
2026-02-25 UTC
国别 :
美国 (US)
星等 :
--
轨道信息
数据来源 国际轨道数据
星历时间: 2026-09-04T07:03:40+0800
13小时前
查看轨道信息
半长轴: 6843.664km
偏心率: 0.0002768
轨道倾角: 97.285°
近地点辐角 106.232°
升交点赤经 255.611°
平近点角 253.923°
近地点: 463.632km
远地点: 467.422km
周期: 93.906分钟
每日圈数: 15.334506
详细信息
固有亮度:
5
最大亮度:
2.5
卫星平台:
Starlink V1.0
覆盖范围:
全球
运营商:
太空探索技术公司
运营商所在国:
美国
制造商(研发单位):
太空探索技术公司
制造商所在国:
美国
使用方式:
暂无
卫星简介
Starlink 计划是 SpaceX 推出的全球卫星互联网项目,通过发射低轨道卫星,为全球尤其是偏远地区提供高速、低延迟的互联网服务。自 2019 年起,Starlink 已部署数千颗卫星,旨在缩小全球数字鸿沟,推动互联网普及。该项目还为军事、航空等行业提供通信支持,带来广泛经济效益。
2D轨道图
3D轨道图
轨道高度分析图
轨道倾角分析图
轨道综合分析图
查看轨道综合分析图
交会数据列表
事件ID 空间交会对象 最接近时刻(TCA) 交会距离 交会风险概率(CRP) 交会风险指数(CRI) 操作
CDM_260904-174204-974006-798421
2026-09-04T
17:42:50+0000
2.884 km
极远距离
1.38978E-6 低风险 0.38
CDM_260904-224305-113206-798421
2026-09-04T
22:43:49+0000
2.585 km
极远距离
1.142985E-6 低风险 0.36
CDM_260905-060006-489006-798421
OBJECT Q (64890)
2026-09-05T
06:00:07+0000
2.878 km
极远距离
7.740928E-7 极低风险 0.33